| time (UTC) | temp C | wind direction | speed KPH | gust KPH | rain 1hr cm | rain 24hr cm | rain mn cm | humidity % | barometer mb |
| 20260504215539 | 13 | 154 | 1.6 | 6.4 | 0.00 | 0.00 | 0.00 | 70 | 1010.7 |
| 20260504215038 | 13 | 24 | 3.2 | 9.7 | 0.00 | 0.00 | 0.00 | 70 | 1010.7 |
| 20260504214548 | 14 | 4 | 1.6 | 9.7 | 0.00 | 0.00 | 0.00 | 68 | 1010.8 |
| 20260504214038 | 14 | 12 | 1.6 | 9.7 | 0.00 | 0.00 | 0.00 | 67 | 1010.9 |
| 20260504213539 | 14 | 11 | 1.6 | 6.4 | 0.00 | 0.00 | 0.00 | 69 | 1010.8 |
| 20260504213109 | 14 | 13 | 1.6 | 9.7 | 0.00 | 0.00 | 0.00 | 69 | 1010.8 |
| 20260504212539 | 14 | 10 | 3.2 | 12.9 | 0.00 | 0.00 | 0.00 | 69 | 1010.8 |
| 20260504212042 | 14 | 285 | 1.6 | 12.9 | 0.00 | 0.00 | 0.00 | 68 | 1010.8 |
| 20260504211549 | 15 | 333 | 1.6 | 9.7 | 0.00 | 0.00 | 0.00 | 68 | 1010.9 |
| 20260504211039 | 15 | 9 | 3.2 | 6.4 | 0.00 | 0.00 | 0.00 | 66 | 1010.9 |
| 20260504210541 | 15 | 357 | 3.2 | 6.4 | 0.00 | 0.00 | 0.00 | 66 | 1010.8 |
| 20260504210051 | 15 | 14 | 3.2 | 9.7 | 0.00 | 0.00 | 0.00 | 66 | 1010.9 |
| 20260504205539 | 15 | 50 | 3.2 | 9.7 | 0.00 | 0.00 | 0.00 | 66 | 1010.8 |
| 20260504205041 | 15 | 16 | 1.6 | 9.7 | 0.00 | 0.00 | 0.00 | 64 | 1010.7 |
| 20260504204553 | 15 | 346 | 1.6 | 8.0 | 0.00 | 0.00 | 0.00 | 65 | 1010.6 |
| 20260504204038 | 15 | 14 | 1.6 | 8.0 | 0.00 | 0.00 | 0.00 | 65 | 1010.6 |
| 20260504203539 | 15 | 7 | 1.6 | 8.0 | 0.00 | 0.00 | 0.00 | 65 | 1010.4 |
| 20260504203117 | 15 | 10 | 3.2 | 8.0 | 0.00 | 0.00 | 0.00 | 64 | 1010.5 |
| 20260504202539 | 15 | 264 | 3.2 | 6.4 | 0.00 | 0.00 | 0.00 | 64 | 1010.4 |
| 20260504202038 | 16 | 337 | 3.2 | 14.5 | 0.00 | 0.00 | 0.00 | 63 | 1010.4 |
| 20260504201552 | 16 | 345 | 3.2 | 14.5 | 0.00 | 0.00 | 0.00 | 63 | 1010.6 |
| 20260504201039 | 16 | 353 | 3.2 | 11.3 | 0.00 | 0.00 | 0.00 | 63 | 1010.5 |
| 20260504200538 | 16 | 345 | 3.2 | 11.3 | 0.00 | 0.00 | 0.00 | 61 | 1010.6 |
| 20260504200051 | 16 | 29 | 1.6 | 9.7 | 0.00 | 0.00 | 0.00 | 61 | 1010.6 |
| 20260504195539 | 17 | 352 | 1.6 | 8.0 | 0.00 | 0.00 | 0.00 | 62 | 1010.5 |
| 20260504195043 | 17 | 12 | 1.6 | 9.7 | 0.00 | 0.00 | 0.00 | 59 | 1010.5 |
| 20260504194559 | 17 | 55 | 1.6 | 9.7 | 0.00 | 0.00 | 0.00 | 60 | 1010.4 |
| 20260504194041 | 17 | 351 | 3.2 | 12.9 | 0.00 | 0.00 | 0.00 | 57 | 1010.6 |
| 20260504193540 | 17 | 29 | 3.2 | 12.9 | 0.00 | 0.00 | 0.00 | 55 | 1010.7 |
| 20260504193052 | 17 | 357 | 3.2 | 12.9 | 0.00 | 0.00 | 0.00 | 54 | 1010.7 |
| 20260504192538 | 17 | 4 | 3.2 | 9.7 | 0.00 | 0.00 | 0.00 | 55 | 1010.8 |
| 20260504192038 | 17 | 1 | 3.2 | 12.9 | 0.00 | 0.00 | 0.00 | 55 | 1010.6 |
| 20260504191547 | 17 | 10 | 3.2 | 12.9 | 0.00 | 0.00 | 0.00 | 54 | 1010.7 |
| 20260504191039 | 17 | 3 | 4.8 | 12.9 | 0.00 | 0.00 | 0.00 | 56 | 1010.8 |
| 20260504190541 | 18 | 337 | 3.2 | 11.3 | 0.00 | 0.00 | 0.00 | 55 | 1010.9 |
| 20260504190105 | 17 | 324 | 1.6 | 16.1 | 0.00 | 0.00 | 0.00 | 57 | 1010.8 |
| 20260504185539 | 17 | 6 | 3.2 | 16.1 | 0.00 | 0.00 | 0.00 | 57 | 1010.8 |
| 20260504185040 | 18 | 347 | 3.2 | 16.1 | 0.00 | 0.00 | 0.00 | 56 | 1010.8 |
| 20260504184559 | 18 | 353 | 3.2 | 8.0 | 0.00 | 0.00 | 0.00 | 58 | 1010.9 |
| 20260504184039 | 18 | 332 | 3.2 | 8.0 | 0.00 | 0.00 | 0.00 | 57 | 1011.1 |
| 20260504183542 | 18 | 16 | 3.2 | 8.0 | 0.00 | 0.00 | 0.00 | 57 | 1011.0 |
| 20260504183048 | 18 | 36 | 3.2 | 6.4 | 0.00 | 0.00 | 0.00 | 57 | 1011.0 |
| 20260504182542 | 18 | 338 | 1.6 | 6.4 | 0.00 | 0.00 | 0.00 | 59 | 1011.1 |
| 20260504182039 | 18 | 14 | 3.2 | 6.4 | 0.00 | 0.00 | 0.00 | 61 | 1011.0 |
| 20260504181549 | 18 | 359 | 3.2 | 12.9 | 0.00 | 0.00 | 0.00 | 60 | 1010.9 |
| 20260504181039 | 18 | 30 | 3.2 | 12.9 | 0.00 | 0.00 | 0.00 | 57 | 1010.9 |
| 20260504180541 | 18 | 8 | 3.2 | 12.9 | 0.00 | 0.00 | 0.00 | 59 | 1011.0 |
| 20260504180051 | 18 | 335 | 3.2 | 8.0 | 0.00 | 0.00 | 0.00 | 59 | 1011.0 |
| 20260504175538 | 18 | 31 | 1.6 | 8.0 | 0.00 | 0.00 | 0.00 | 59 | 1010.8 |
| 20260504175040 | 18 | 32 | 3.2 | 8.0 | 0.00 | 0.00 | 0.00 | 59 | 1010.8 |
| 20260504174601 | 18 | 26 | 1.6 | 6.4 | 0.00 | 0.00 | 0.00 | 59 | 1010.9 |
| 20260504174039 | 18 | 26 | 3.2 | 6.4 | 0.00 | 0.00 | 0.00 | 61 | 1010.9 |
| 20260504173539 | 18 | 14 | 3.2 | 6.4 | 0.00 | 0.00 | 0.00 | 58 | 1010.9 |
| 20260504173056 | 18 | 348 | 3.2 | 11.3 | 0.00 | 0.00 | 0.00 | 58 | 1010.9 |
| 20260504172539 | 18 | 354 | 3.2 | 11.3 | 0.00 | 0.00 | 0.00 | 59 | 1011.0 |
| 20260504172041 | 18 | 345 | 3.2 | 8.0 | 0.00 | 0.00 | 0.00 | 61 | 1011.0 |
| 20260504171551 | 18 | 14 | 3.2 | 6.4 | 0.00 | 0.00 | 0.00 | 60 | 1011.0 |
| 20260504171039 | 18 | 20 | 3.2 | 6.4 | 0.00 | 0.00 | 0.00 | 64 | 1011.0 |
| 20260504170539 | 18 | 359 | 3.2 | 6.4 | 0.00 | 0.00 | 0.00 | 60 | 1011.1 |
| 20260504151038 | 18 | 11 | 1.6 | 4.8 | 0.00 | 0.00 | 0.00 | 59 | 1011.8 |
| 20260504150536 | 18 | 355 | 1.6 | 11.3 | 0.00 | 0.00 | 0.00 | 57 | 1011.9 |
| 20260504141038 | 17 | 103 | 1.6 | 6.4 | 0.00 | 0.00 | 0.00 | 61 | 1012.1 |
| 20260504140536 | 17 | 1 | 1.6 | 6.4 | 0.00 | 0.00 | 0.00 | 61 | 1012.1 |
| 20260504140106 | 17 | 359 | 1.6 | 6.4 | 0.00 | 0.00 | 0.00 | 60 | 1012.2 |
| 20260504130539 | 15 | 0 | 0.0 | 6.4 | 0.00 | 0.00 | 0.00 | 64 | 1012.3 |
| 20260504110539 | 6 | 0 | 0.0 | 1.6 | 0.00 | 0.00 | 0.00 | 89 | 1012.4 |
| 20260504110116 | 6 | 0 | 0.0 | 1.6 | 0.00 | 0.00 | 0.00 | 90 | 1012.3 |
| 20260504100538 | 5 | 0 | 0.0 | 0.0 | 0.00 | 0.00 | 0.00 | 88 | 1012.2 |
| 20260504090117 | 5 | 0 | 0.0 | 0.0 | 0.00 | 0.00 | 0.00 | 88 | 1011.7 |
| 20260504081548 | 5 | 0 | 0.0 | 0.0 | 0.00 | 0.00 | 0.00 | 88 | 1011.7 |
| 20260504081039 | 5 | 0 | 0.0 | 0.0 | 0.00 | 0.00 | 0.00 | 89 | 1011.7 |
| 20260504080541 | 5 | 0 | 0.0 | 0.0 | 0.00 | 0.00 | 0.00 | 89 | 1011.8 |
| 20260504050538 | 3 | 0 | 0.0 | 0.0 | 0.00 | 0.00 | 0.00 | 89 | 1011.5 |
| 20260504045542 | 3 | 0 | 0.0 | 0.0 | 0.00 | 0.00 | 0.00 | 89 | 1011.4 |
| 20260504045038 | 3 | 0 | 0.0 | 0.0 | 0.00 | 0.00 | 0.00 | 89 | 1011.5 |
| 20260504044559 | 3 | 0 | 0.0 | 0.0 | 0.00 | 0.00 | 0.00 | 88 | 1011.5 |
| 20260504044038 | 3 | 0 | 0.0 | 0.0 | 0.00 | 0.00 | 0.00 | 88 | 1011.4 |
| 20260504043539 | 3 | 0 | 0.0 | 0.0 | 0.00 | 0.00 | 0.00 | 88 | 1011.5 |
| 20260504043054 | 2 | 0 | 0.0 | 0.0 | 0.00 | 0.00 | 0.00 | 88 | 1011.4 |
| 20260504042536 | 2 | 0 | 0.0 | 0.0 | 0.00 | 0.00 | 0.00 | 87 | 1011.6 |
| 20260504042035 | 2 | 0 | 0.0 | 0.0 | 0.00 | 0.00 | 0.00 | 87 | 1011.6 |
| 20260504041550 | 2 | 0 | 0.0 | 3.2 | 0.00 | 0.00 | 0.00 | 86 | 1011.6 |
| 20260504041039 | 2 | 0 | 0.0 | 3.2 | 0.00 | 0.00 | 0.00 | 85 | 1011.4 |
| 20260504040541 | 2 | 20 | 0.0 | 3.2 | 0.00 | 0.00 | 0.00 | 85 | 1011.4 |
| 20260504040052 | 2 | 0 | 0.0 | 3.2 | 0.00 | 0.00 | 0.00 | 84 | 1011.3 |
| 20260504035539 | 2 | 0 | 0.0 | 3.2 | 0.00 | 0.00 | 0.00 | 84 | 1011.3 |
| 20260504035039 | 2 | 0 | 0.0 | 0.0 | 0.00 | 0.00 | 0.00 | 84 | 1011.3 |
| 20260504034554 | 2 | 0 | 0.0 | 0.0 | 0.00 | 0.00 | 0.00 | 83 | 1011.2 |
| 20260504034040 | 2 | 0 | 0.0 | 0.0 | 0.00 | 0.00 | 0.00 | 82 | 1011.2 |
| 20260504033538 | 2 | 0 | 0.0 | 0.0 | 0.00 | 0.00 | 0.00 | 82 | 1011.1 |
| 20260504033056 | 2 | 0 | 0.0 | 0.0 | 0.00 | 0.00 | 0.00 | 82 | 1011.1 |
| 20260504032539 | 2 | 0 | 0.0 | 1.6 | 0.00 | 0.00 | 0.00 | 82 | 1011.1 |
| 20260504032039 | 2 | 0 | 0.0 | 1.6 | 0.00 | 0.00 | 0.00 | 81 | 1011.1 |
| 20260504031551 | 2 | 0 | 0.0 | 0.0 | 0.00 | 0.00 | 0.00 | 81 | 1011.1 |
| 20260504031038 | 2 | 0 | 0.0 | 0.0 | 0.00 | 0.00 | 0.00 | 81 | 1011.0 |
| 20260504030542 | 2 | 0 | 0.0 | 0.0 | 0.00 | 0.00 | 0.00 | 81 | 1011.1 |
| 20260504030048 | 2 | 0 | 0.0 | 0.0 | 0.00 | 0.00 | 0.00 | 81 | 1011.0 |
| 20260504025539 | 3 | 0 | 0.0 | 0.0 | 0.00 | 0.00 | 0.00 | 81 | 1011.1 |
| 20260504025039 | 3 | 0 | 0.0 | 0.0 | 0.00 | 0.00 | 0.00 | 80 | 1011.1 |
| 20260504024550 | 3 | 0 | 0.0 | 0.0 | 0.00 | 0.00 | 0.00 | 80 | 1011.2 |
| 20260504024039 | 3 | 0 | 0.0 | 0.0 | 0.00 | 0.00 | 0.00 | 80 | 1011.1 |
| 20260504023539 | 3 | 0 | 0.0 | 0.0 | 0.00 | 0.00 | 0.00 | 80 | 1011.2 |
| 20260504023051 | 3 | 0 | 0.0 | 0.0 | 0.00 | 0.00 | 0.00 | 79 | 1011.1 |
| 20260504022537 | 3 | 0 | 0.0 | 0.0 | 0.00 | 0.00 | 0.00 | 79 | 1011.2 |
| 20260504022038 | 3 | 0 | 0.0 | 1.6 | 0.00 | 0.00 | 0.00 | 79 | 1011.1 |
| 20260504021553 | 3 | 0 | 0.0 | 1.6 | 0.00 | 0.00 | 0.00 | 79 | 1011.0 |
| 20260504021041 | 3 | 0 | 0.0 | 0.0 | 0.00 | 0.00 | 0.00 | 79 | 1011.1 |
| 20260504020541 | 3 | 0 | 0.0 | 0.0 | 0.00 | 0.00 | 0.00 | 77 | 1011.1 |
| 20260504020048 | 4 | 0 | 0.0 | 0.0 | 0.00 | 0.00 | 0.00 | 77 | 1011.1 |
| 20260504015536 | 4 | 0 | 0.0 | 0.0 | 0.00 | 0.00 | 0.00 | 77 | 1011.1 |
| 20260504015038 | 4 | 0 | 0.0 | 0.0 | 0.00 | 0.00 | 0.00 | 77 | 1011.1 |
| 20260504014550 | 4 | 0 | 0.0 | 0.0 | 0.00 | 0.00 | 0.00 | 77 | 1010.9 |
| 20260504014039 | 5 | 0 | 0.0 | 0.0 | 0.00 | 0.00 | 0.00 | 77 | 1010.9 |
| 20260504013535 | 5 | 0 | 0.0 | 0.0 | 0.00 | 0.00 | 0.00 | 76 | 1010.8 |
| 20260504013051 | 5 | 0 | 0.0 | 0.0 | 0.00 | 0.00 | 0.00 | 76 | 1010.8 |
| 20260504012542 | 5 | 0 | 0.0 | 0.0 | 0.00 | 0.00 | 0.00 | 75 | 1010.7 |
| 20260504012039 | 5 | 0 | 0.0 | 0.0 | 0.00 | 0.00 | 0.00 | 74 | 1010.6 |
| 20260504011552 | 5 | 0 | 0.0 | 0.0 | 0.00 | 0.00 | 0.00 | 73 | 1010.6 |
| 20260504011038 | 5 | 0 | 0.0 | 0.0 | 0.00 | 0.00 | 0.00 | 73 | 1010.5 |
| 20260504010539 | 6 | 0 | 0.0 | 0.0 | 0.00 | 0.00 | 0.00 | 71 | 1010.5 |
| 20260504010058 | 6 | 0 | 0.0 | 0.0 | 0.00 | 0.00 | 0.00 | 70 | 1010.4 |
| 20260504005540 | 6 | 0 | 0.0 | 0.0 | 0.00 | 0.00 | 0.00 | 70 | 1010.3 |
| 20260504005036 | 6 | 0 | 0.0 | 0.0 | 0.00 | 0.00 | 0.00 | 69 | 1010.2 |
| 20260504004550 | 6 | 0 | 0.0 | 0.0 | 0.00 | 0.00 | 0.00 | 68 | 1010.1 |
| 20260504004039 | 6 | 0 | 0.0 | 0.0 | 0.00 | 0.00 | 0.00 | 69 | 1010.1 |
| 20260504003543 | 6 | 0 | 0.0 | 0.0 | 0.00 | 0.00 | 0.00 | 69 | 1009.9 |
| 20260504003047 | 7 | 0 | 0.0 | 0.0 | 0.00 | 0.00 | 0.00 | 67 | 1009.8 |
| 20260504002539 | 7 | 0 | 0.0 | 0.0 | 0.00 | 0.00 | 0.00 | 67 | 1009.8 |
| 20260504002039 | 7 | 0 | 0.0 | 0.0 | 0.00 | 0.00 | 0.00 | 66 | 1009.8 |
| 20260504001607 | 7 | 0 | 0.0 | 0.0 | 0.00 | 0.00 | 0.00 | 65 | 1009.7 |
| 20260504001039 | 8 | 0 | 0.0 | 0.0 | 0.00 | 0.00 | 0.00 | 64 | 1009.7 |
| 20260504000540 | 8 | 0 | 0.0 | 1.6 | 0.00 | 0.00 | 0.00 | 62 | 1009.6 |
| 20260504000052 | 8 | 0 | 0.0 | 3.2 | 0.00 | 0.00 | 0.00 | 61 | 1009.5 |
| 20260503235540 | 8 | 20 | 0.0 | 3.2 | 0.00 | 0.00 | 0.00 | 62 | 1009.5 |
| 20260503235039 | 8 | 0 | 0.0 | 3.2 | 0.00 | 0.00 | 0.00 | 60 | 1009.3 |
| 20260503234550 | 9 | 0 | 0.0 | 4.8 | 0.00 | 0.00 | 0.00 | 60 | 1009.3 |
| 20260503234039 | 9 | 25 | 1.6 | 4.8 | 0.00 | 0.00 | 0.00 | 58 | 1009.2 |
| 20260503233538 | 9 | 25 | 1.6 | 4.8 | 0.00 | 0.00 | 0.00 | 58 | 1009.2 |
| 20260503233050 | 9 | 8 | 1.6 | 3.2 | 0.00 | 0.00 | 0.00 | 57 | 1009.0 |
| 20260503232541 | 9 | 357 | 0.0 | 4.8 | 0.00 | 0.00 | 0.00 | 60 | 1009.0 |
| 20260503232039 | 9 | 357 | 1.6 | 4.8 | 0.00 | 0.00 | 0.00 | 57 | 1008.9 |
| 20260503231550 | 10 | 247 | 0.0 | 4.8 | 0.00 | 0.00 | 0.00 | 61 | 1008.7 |
| 20260503231040 | 10 | 246 | 0.0 | 6.4 | 0.00 | 0.00 | 0.00 | 59 | 1008.5 |
| 20260503230535 | 10 | 0 | 0.0 | 6.4 | 0.00 | 0.00 | 0.00 | 56 | 1008.6 |
| 20260503230047 | 10 | 246 | 0.0 | 4.8 | 0.00 | 0.00 | 0.00 | 60 | 1008.5 |
| 20260503225539 | 10 | 0 | 0.0 | 4.8 | 0.00 | 0.00 | 0.00 | 57 | 1008.3 |
| 20260503225039 | 10 | 314 | 0.0 | 4.8 | 0.00 | 0.00 | 0.00 | 56 | 1008.3 |
| 20260503224547 | 10 | 16 | 1.6 | 4.8 | 0.00 | 0.00 | 0.00 | 56 | 1008.2 |
| 20260503224039 | 10 | 258 | 1.6 | 6.4 | 0.00 | 0.00 | 0.00 | 55 | 1008.1 |
| 20260503223542 | 11 | 0 | 1.6 | 6.4 | 0.00 | 0.00 | 0.00 | 55 | 1008.1 |
| 20260503223050 | 11 | 359 | 1.6 | 12.9 | 0.00 | 0.00 | 0.00 | 54 | 1008.1 |
| 20260503222537 | 11 | 345 | 3.2 | 12.9 | 0.00 | 0.00 | 0.00 | 54 | 1008.0 |
| 20260503222038 | 11 | 0 | 0.0 | 4.8 | 0.00 | 0.00 | 0.00 | 56 | 1007.9 |
| 20260503221551 | 11 | 0 | 0.0 | 6.4 | 0.00 | 0.00 | 0.00 | 55 | 1007.8 |
| 20260503221041 | 11 | 12 | 1.6 | 8.0 | 0.00 | 0.00 | 0.00 | 50 | 1007.8 |
| 20260503220539 | 11 | 89 | 3.2 | 8.0 | 0.00 | 0.00 | 0.00 | 52 | 1007.6 |
| 20260503220108 | 11 | 0 | 1.6 | 6.4 | 0.00 | 0.00 | 0.00 | 53 | 1007.7 |